Valdosta Regional, GA

1:10 PM EST on January 19, 2018 (GMT -0500)
Valdosta Regional

Weather History for KVLD - December, 2013

Change the Weather History Date:

Monday, December 9, 2013

  Actual Average Record
Temperature  
Mean Temperature 75 °F 54 °F  
Max Temperature 85 °F 66 °F 85 °F (2013)
Min Temperature 65 °F 43 °F 24 °F (2010)
Degree Days  
Heating Degree Days 0 11  
Month to date heating degree days 10 94  
Since 1 July heating degree days 176 325  
Cooling Degree Days 9    
Growing Degree Days 24 (Base 50)    
Moisture  
Dew Point 64 °F    
Average Humidity 71    
Maximum Humidity 93    
Minimum Humidity 48    
Precipitation  
Precipitation T in 0.11 in 0.89 in (1948)
Month to date precipitation 0.13 0.98  
Year to date precipitation 41.47 48.41  
Sea Level Pressure  
Sea Level Pressure 30.14 in    
Wind  
Wind Speed 7 mph (South)    
Max Wind Speed 16 mph    
Max Gust Speed 25 mph    
Visibility 5 miles    
Events Fog , Rain    
T = Trace of Precipitation, MM = Missing Value Source: NWS Daily Summary

Daily Weather History Graph

Daily Weather History Graph

Search for Another Location

Airport or City:

Trip Planner

Search our weather history database for the weather conditions in past years. The results will help you decide how hot, cold, wet, or windy it might be!

Date:

Astronomy

Dec. 09, 2013 Rise Set
Actual Time 7:19 AM EST 5:31 PM EST
Civil Twilight 6:52 AM EST 5:58 PM EST
Nautical Twilight 6:22 AM EST 6:28 PM EST
Astronomical Twilight 5:53 AM EST 6:57 PM EST
Moon 12:35 PM EST (12/9) No Moon Set
Length of Visible Light 11h 05m
Length of Day
10h 12m
Waxing Crescent, 51% of the Moon is Illuminated
Dec 9
Waxing Crescent
Dec 17
Full
Dec 25
Last Quarter
Jan 1
New
Jan 7
First Quarter

Hourly Weather History & Observations

Time (EST) Temp. Heat Index Dew Point Humidity Pressure Visibility Wind Dir Wind Speed Gust Speed Precip Events Conditions
12:35 AM 66.2 °F - 62.6 °F 88% 30.17 in 2.5 mi ESE 4.6 mph - N/A   Overcast
12:53 AM 66.0 °F - 62.1 °F 87% 30.20 in 2.0 mi ESE 3.5 mph - N/A   Overcast
1:01 AM 66.2 °F - 62.6 °F 88% 30.18 in 1.5 mi ESE 5.8 mph - N/A   Overcast
1:38 AM 66.2 °F - 62.6 °F 88% 30.17 in 2.0 mi Calm Calm - 0.00 in   Overcast
1:53 AM 66.0 °F - 62.1 °F 87% 30.20 in 3.0 mi ESE 4.6 mph - 0.00 in Rain Light Rain
2:53 AM 66.0 °F - 62.1 °F 87% 30.19 in 5.0 mi ESE 4.6 mph - 0.00 in   Overcast
3:53 AM 64.9 °F - 61.0 °F 87% 30.18 in 4.0 mi SE 4.6 mph - N/A   Overcast
4:16 AM 64.4 °F - 60.8 °F 88% 30.16 in 2.5 mi SE 3.5 mph - N/A   Overcast
4:36 AM 64.4 °F - 60.8 °F 88% 30.16 in 1.5 mi SE 4.6 mph - N/A   Overcast
4:53 AM 64.9 °F - 61.0 °F 87% 30.18 in 1.0 mi SE 5.8 mph - N/A   Overcast
5:06 AM 64.4 °F - 62.6 °F 94% 30.16 in 0.8 mi SSE 4.6 mph - N/A   Overcast
5:53 AM 64.9 °F - 61.0 °F 87% 30.17 in 0.5 mi SSE 5.8 mph - 0.00 in Fog Fog
6:53 AM 64.9 °F - 62.1 °F 90% 30.17 in 0.5 mi SSE 5.8 mph - N/A Fog Fog
7:22 AM 64.4 °F - 62.6 °F 94% 30.14 in 0.2 mi SSE 6.9 mph - N/A Fog Fog
7:39 AM 66.2 °F - 62.6 °F 88% 30.15 in 0.5 mi SSE 6.9 mph - N/A Fog Fog
7:53 AM 66.0 °F - 62.1 °F 87% 30.17 in 0.5 mi SSE 6.9 mph - N/A Fog Fog
8:33 AM 66.2 °F - 62.6 °F 88% 30.16 in 1.5 mi SSE 5.8 mph - N/A   Overcast
8:43 AM 66.2 °F - 62.6 °F 88% 30.16 in 2.5 mi South 6.9 mph - N/A   Overcast
8:51 AM 66.2 °F - 64.4 °F 94% 30.16 in 3.0 mi South 6.9 mph - N/A   Overcast
8:53 AM 66.9 °F - 64.0 °F 90% 30.19 in 4.0 mi South 6.9 mph - N/A   Overcast
9:53 AM 71.1 °F - 64.9 °F 81% 30.19 in 10.0 mi South 5.8 mph - N/A   Overcast
10:40 AM 75.2 °F - 66.2 °F 73% 30.16 in 10.0 mi South 10.4 mph - N/A   Scattered Clouds
10:53 AM 78.1 °F - 66.9 °F 68% 30.18 in 10.0 mi South 9.2 mph - N/A   Scattered Clouds
11:53 AM 80.1 °F 82.1 °F 66.0 °F 62% 30.16 in 10.0 mi SSW 10.4 mph 19.6 mph N/A   Scattered Clouds
12:26 PM 80.6 °F 82.7 °F 66.2 °F 61% 30.12 in 10.0 mi SSW 6.9 mph - N/A   Mostly Cloudy
12:48 PM 84.2 °F 85.6 °F 64.4 °F 51% 30.11 in 10.0 mi South 10.4 mph 20.7 mph N/A   Mostly Cloudy
12:53 PM 84.0 °F 85.8 °F 64.9 °F 53% 30.13 in 10.0 mi South 9.2 mph - N/A   Mostly Cloudy
1:53 PM 84.9 °F 85.9 °F 63.0 °F 48% 30.11 in 10.0 mi South 16.1 mph 20.7 mph N/A   Scattered Clouds
2:53 PM 82.9 °F 83.7 °F 62.1 °F 49% 30.10 in 10.0 mi South 10.4 mph 16.1 mph N/A   Mostly Cloudy
3:53 PM 81.0 °F 81.9 °F 62.1 °F 52% 30.10 in 10.0 mi South 9.2 mph - N/A   Mostly Cloudy
4:53 PM 79.0 °F - 63.0 °F 58% 30.12 in 10.0 mi Variable 5.8 mph - N/A   Mostly Cloudy
5:53 PM 75.0 °F - 63.0 °F 66% 30.12 in 10.0 mi South 4.6 mph - N/A   Clear
6:53 PM 73.9 °F - 64.9 °F 73% 30.13 in 10.0 mi SSW 4.6 mph - N/A   Clear
7:53 PM 73.0 °F - 66.0 °F 79% 30.13 in 10.0 mi SSW 4.6 mph - N/A   Clear
8:53 PM 72.0 °F - 66.0 °F 81% 30.14 in 10.0 mi South 4.6 mph - N/A   Clear
9:22 PM 71.6 °F - 66.2 °F 83% 30.11 in 8.0 mi South 4.6 mph - N/A   Mostly Cloudy
9:53 PM 72.0 °F - 66.9 °F 84% 30.12 in 8.0 mi South 5.8 mph - N/A   Scattered Clouds
10:06 PM 69.8 °F - 66.2 °F 88% 30.09 in 7.0 mi South 6.9 mph - N/A   Mostly Cloudy
10:24 PM 71.6 °F - 66.2 °F 83% 30.09 in 7.0 mi SSW 4.6 mph - N/A   Overcast
10:41 PM 71.6 °F - 66.2 °F 83% 30.09 in 6.0 mi South 4.6 mph - N/A   Overcast
10:53 PM 71.1 °F - 66.9 °F 87% 30.11 in 4.0 mi SSW 5.8 mph - N/A   Overcast
11:12 PM 71.6 °F - 66.2 °F 83% 30.09 in 2.0 mi SSW 5.8 mph - N/A   Overcast
11:53 PM 71.1 °F - 68.0 °F 90% 30.09 in 1.8 mi South 5.8 mph - N/A   Overcast